sat.trackr.live / text

‹ back to catalog

STARLINK-11279 [DTC]

NORAD 61206 · 2024-171G

PAYLOAD ACTIVE UNKNOWN

§ Identity

Operator
Country
US
Launch date
2024-09-20
Launch site
AFWTR
Launch vehicle
Mass (kg)
RCS (m²)

Purposes: comms

External: N2YO · Heavens-Above · Gunter

§ Orbital elements

Epoch: 2026-09-21T08:36:52.436736Z

Period
91.74 min
Inclination
53.1589°
Eccentricity
0.0000865
Mean motion
15.69699003 rev/d
Perigee alt
359.2 km
Apogee alt
360.3 km
Semi-major
6,737.9 km
B*
-5.3883e-6
RAAN
291.4706°
Arg perigee
71.8805°
Mean anomaly
288.2307°
Rev number
11,513

§ Raw data

STARLINK-11279 [DTC]1 61206U 24171G   26264.35894024 -.00001240  00000+0 -53883-5 0  99952 61206  53.1589 291.4706 0000865  71.8805 288.2307 15.69699003115134

JSON: /api/v1/satellites/61206 · /tle

For live sub-satellite position, see the globe view (requires WebGL).

§ Visibility from observer

Set your observer location to see the next 7 days of passes ≥ 10°. The values pass through the URL so the page stays shareable.

No JS? Fill the form by hand. The geolocation button needs JavaScript.